TimeCET,TemperatureF,Dew PointF,Humidity,Sea Level PressureIn,VisibilityMPH,Wind Direction,Wind SpeedMPH,Gust SpeedMPH,PrecipitationIn,Events,Conditions,WindDirDegrees,DateUTC
12:25 AM,41.0,39.2,93,30.04,6.2,ENE,4.6,-,N/A,,Overcast,70,2012-12-27 23:25:00
12:55 AM,41.0,39.2,93,30.06,6.2,ENE,4.6,-,N/A,,Scattered Clouds,70,2012-12-27 23:55:00
1:00 AM,41,39,88,30.08,12,ENE,4.5,,,Rain,Drizzle,60,2012-12-28 00:00:00
1:25 AM,41.0,39.2,93,30.06,6.2,ENE,3.5,-,N/A,,Overcast,60,2012-12-28 00:25:00
1:55 AM,41.0,39.2,93,30.09,6.2,Variable,2.3,-,N/A,,Mostly Cloudy,0,2012-12-28 00:55:00
2:25 AM,41.0,39.2,93,30.09,6.2,East,4.6,-,N/A,,Overcast,90,2012-12-28 01:25:00
2:55 AM,41.0,39.2,93,30.12,6.2,ENE,4.6,-,N/A,,Overcast,70,2012-12-28 01:55:00
3:25 AM,41.0,39.2,93,30.12,6.2,East,3.5,-,N/A,,Overcast,90,2012-12-28 02:25:00
3:55 AM,41.0,39.2,93,30.12,6.2,East,4.6,-,N/A,,Overcast,100,2012-12-28 02:55:00
4:00 AM,42,39,83,30.15,14,ESE,4.5,,,,Overcast,110,2012-12-28 03:00:00
4:25 AM,41.0,37.4,87,30.12,6.2,ESE,6.9,-,N/A,,Overcast,110,2012-12-28 03:25:00
4:55 AM,41.0,37.4,87,30.15,6.2,ESE,4.6,-,N/A,,Overcast,120,2012-12-28 03:55:00
5:25 AM,41.0,37.4,87,30.15,6.2,SE,5.8,-,N/A,,Overcast,130,2012-12-28 04:25:00
5:55 AM,41.0,37.4,87,30.18,6.2,SE,6.9,-,N/A,,Overcast,140,2012-12-28 04:55:00
6:25 AM,41.0,39.2,93,30.18,6.2,SE,5.8,-,N/A,,Overcast,130,2012-12-28 05:25:00
6:55 AM,42.8,39.2,87,30.18,6.2,SE,5.8,-,N/A,,Overcast,130,2012-12-28 05:55:00
7:00 AM,42,39,85,30.18,9,SE,4.5,,,,Partly Cloudy,130,2012-12-28 06:00:00
7:25 AM,42.8,39.2,87,30.18,6.2,SSE,9.2,-,N/A,,Mostly Cloudy,150,2012-12-28 06:25:00
7:55 AM,42.8,41.0,93,30.18,5.6,SSE,8.1,-,N/A,,Mostly Cloudy,160,2012-12-28 06:55:00
8:25 AM,42.8,41.0,93,30.18,3.7,SSE,8.1,-,N/A,,Mostly Cloudy,160,2012-12-28 07:25:00
8:55 AM,42.8,41.0,93,30.18,3.1,SSE,8.1,-,N/A,,Scattered Clouds,160,2012-12-28 07:55:00
9:25 AM,42.8,41.0,93,30.18,3.1,South,8.1,-,N/A,,Overcast,180,2012-12-28 08:25:00
9:55 AM,42.8,41.0,93,30.18,5.0,South,9.2,-,N/A,,Mostly Cloudy,180,2012-12-28 08:55:00
10:00 AM,43,41,89,30.19,5,South,8.9,,,,Mist,190,2012-12-28 09:00:00
10:25 AM,44.6,41.0,87,30.18,6.2,South,11.5,-,N/A,,Unknown,180,2012-12-28 09:25:00
10:55 AM,44.6,41.0,87,30.18,6.2,South,11.5,-,N/A,,Unknown,180,2012-12-28 09:55:00
11:25 AM,44.6,41.0,87,30.18,6.2,South,12.7,-,N/A,,Partly Cloudy,190,2012-12-28 10:25:00
11:55 AM,44.6,39.2,81,30.18,6.2,South,12.7,-,N/A,,Overcast,180,2012-12-28 10:55:00
12:25 PM,44.6,41.0,87,30.15,6.2,South,13.8,-,N/A,,Overcast,180,2012-12-28 11:25:00
12:55 PM,44.6,41.0,87,30.15,6.2,South,13.8,-,N/A,Rain,Drizzle,170,2012-12-28 11:55:00
1:00 PM,45,41,82,30.17,7,South,13.4,,,Rain,Light Rain Showers,170,2012-12-28 12:00:00
1:25 PM,44.6,42.8,93,30.15,6.2,South,13.8,-,N/A,,Drizzle,180,2012-12-28 12:25:00
1:55 PM,44.6,42.8,93,30.12,6.2,South,15.0,-,N/A,Rain,Drizzle,180,2012-12-28 12:55:00
2:25 PM,44.6,42.8,93,30.09,6.2,South,16.1,-,N/A,Rain,Light Rain,170,2012-12-28 13:25:00
2:55 PM,44.6,42.8,93,30.09,6.2,South,16.1,-,N/A,Rain,Light Rain,180,2012-12-28 13:55:00
3:25 PM,46.4,44.6,93,30.06,-9999.0,South,16.1,-,N/A,Rain,Light Rain Showers,180,2012-12-28 14:25:00
3:55 PM,46.4,44.6,93,30.06,1.9,South,17.3,-,N/A,Rain,Light Rain,180,2012-12-28 14:55:00
4:25 PM,46.4,44.6,93,30.06,6.2,South,17.3,-,N/A,,Overcast,190,2012-12-28 15:25:00
4:55 PM,46.4,46.4,100,30.06,-9999.0,South,17.3,-,N/A,,Overcast,190,2012-12-28 15:55:00
5:25 PM,46.4,46.4,100,30.06,5.0,SSW,16.1,-,N/A,,Overcast,200,2012-12-28 16:25:00
5:55 PM,48.2,46.4,93,30.06,5.0,South,16.1,-,N/A,,Overcast,190,2012-12-28 16:55:00
6:25 PM,48.2,46.4,93,30.06,3.7,SSW,19.6,-,N/A,,Overcast,200,2012-12-28 17:25:00
6:55 PM,48.2,48.2,100,30.04,3.7,SSW,17.3,-,N/A,,Overcast,200,2012-12-28 17:55:00
7:00 PM,49,47,92,30.06,2,SSW,17.9,,,Rain,Light Rain Showers,200,2012-12-28 18:00:00
7:25 PM,48.2,48.2,100,30.04,4.3,SSW,17.3,-,N/A,,Overcast,200,2012-12-28 18:25:00
7:55 PM,50.0,48.2,94,30.04,4.3,SSW,16.1,-,N/A,,Overcast,200,2012-12-28 18:55:00
8:25 PM,50.0,48.2,94,30.04,5.6,SSW,16.1,-,N/A,,Overcast,200,2012-12-28 19:25:00
8:55 PM,50.0,48.2,94,30.04,5.6,South,16.1,-,N/A,,Mostly Cloudy,190,2012-12-28 19:55:00
9:25 PM,50.0,48.2,94,30.04,6.2,SSW,15.0,26.5,N/A,,Overcast,200,2012-12-28 20:25:00
9:55 PM,50.0,48.2,94,30.04,5.0,SSW,16.1,-,N/A,,Light Drizzle,200,2012-12-28 20:55:00
10:00 PM,50,48,92,30.04,4,SSW,15.7,,,Rain,Drizzle,200,2012-12-28 21:00:00
10:25 PM,50.0,48.2,94,30.04,3.7,SSW,15.0,-,N/A,,Overcast,200,2012-12-28 21:25:00
10:55 PM,50.0,48.2,94,30.04,5.0,SSW,16.1,-,N/A,,Mostly Cloudy,200,2012-12-28 21:55:00
11:25 PM,50.0,48.2,94,30.01,6.2,South,15.0,-,N/A,,Overcast,190,2012-12-28 22:25:00
11:55 PM,50.0,48.2,94,30.01,4.3,South,15.0,-,N/A,Rain,Light Rain,190,2012-12-28 22:55:00